GFSFLT2_sfc_thetae_168.txt.gz
Theta_e
313 315 316 311 309 316 310 311 308 310 313 318 321 322 324 327 330 332 336 338 340 342 345 347 349 350 352 354 357 359 359 360
312 314 315 314 316 308 309 304 302 307 309 311 317 321 326 326 329 333 336 338 340 343 345 347 349 351 353 354 357 359 360 361
311 308 309 309 311 312 312 311 305 304 308 320 319 323 326 328 331 334 336 338 339 342 346 349 349 350 352 354 356 359 361 362
306 313 315 313 313 313 308 308 310 310 310 320 321 325 328 329 333 336 337 339 341 342 344 346 349 350 351 354 356 359 361 362
305 309 312 311 313 315 315 314 311 306 309 322 324 327 330 330 332 336 338 340 342 343 344 346 348 350 350 353 355 358 361 360
303 307 310 308 311 314 314 310 310 310 312 319 320 324 331 334 335 337 339 341 343 344 347 348 350 351 352 354 356 359 358 358
310 310 310 310 310 311 311 313 309 312 312 317 321 323 325 336 339 339 340 341 344 346 348 350 352 353 354 356 357 358 356 355
307 310 310 308 311 311 312 312 312 313 313 321 324 325 330 337 339 339 341 342 345 347 348 350 352 353 355 355 356 357 352 350
305 308 308 305 310 311 312 314 313 310 316 321 321 326 330 335 339 339 342 343 345 347 349 351 352 354 353 352 352 349 347 346
306 309 299 310 315 314 312 314 317 317 319 322 325 327 329 334 338 341 343 344 346 348 351 352 352 351 349 348 346 344 342 340
304 305 308 310 313 313 311 312 317 317 319 321 324 327 330 337 342 344 346 348 348 350 350 349 348 347 345 343 341 339 336 335
307 302 300 311 316 319 318 309 320 320 320 320 328 320 322 338 344 344 347 349 348 348 347 347 345 345 342 339 335 332 331 331
306 305 308 315 318 320 308 311 322 323 324 324 327 326 341 345 343 346 348 347 348 346 344 343 343 342 336 333 329 329 330 330
306 304 303 319 317 313 321 325 324 327 328 327 333 340 343 343 343 345 344 343 344 343 340 341 340 336 331 328 329 329 329 328
309 309 321 324 322 325 325 326 326 327 331 331 335 340 341 342 344 344 343 342 342 338 337 336 336 333 328 327 328 326 328 328
314 317 319 322 325 327 331 329 330 331 331 335 336 340 341 343 343 341 341 339 338 335 333 331 331 329 328 327 326 327 326 325
315 319 322 322 325 327 329 331 330 332 334 337 340 341 342 341 341 340 338 337 336 333 330 327 327 324 324 325 326 325 324 323
309 320 322 323 329 331 330 330 333 333 335 340 342 341 341 339 339 338 336 336 333 330 326 324 322 322 323 325 326 324 322 320
324 329 332 335 335 336 333 333 336 338 340 340 342 341 340 338 338 332 336 333 330 326 324 322 321 322 324 325 325 324 320 315

GFSFLT2_sfc_thetae_171.txt.gz
Theta_e
318 318 318 314 311 317 311 313 309 313 316 320 323 322 324 326 330 332 333 335 338 341 343 345 347 349 349 356 362 361 360 365
316 318 318 316 318 310 312 305 304 310 311 312 319 320 324 326 327 331 334 335 337 340 344 345 347 349 351 353 360 360 361 363
315 312 311 312 312 313 314 311 307 305 310 321 321 324 326 328 330 331 334 335 337 340 343 346 346 348 350 352 357 361 366 368
310 315 316 316 314 315 309 310 311 312 311 322 324 325 328 329 332 333 335 335 338 341 344 347 348 348 350 353 356 364 365 367
308 311 314 312 315 317 316 315 312 309 311 323 324 324 328 329 333 335 337 338 340 343 344 348 351 353 353 355 356 360 364 365
305 308 311 309 313 315 315 311 312 313 315 320 322 322 327 331 334 336 339 341 342 345 352 353 355 356 355 356 358 361 363 361
311 313 312 311 311 312 312 314 311 314 316 319 323 324 326 331 335 337 340 342 344 346 350 351 355 355 355 357 360 361 361 360
308 311 312 310 312 313 314 314 315 316 316 322 324 326 326 332 338 339 340 343 346 348 351 351 354 355 357 358 360 361 357 353
305 310 310 307 311 312 313 316 315 312 318 322 322 323 325 327 333 339 341 344 348 350 353 354 355 357 357 358 358 356 352 351
306 309 301 311 317 316 314 316 317 318 320 321 323 325 326 329 329 333 341 345 349 352 354 356 357 358 360 356 353 350 348 345
307 305 309 310 313 313 313 313 318 318 320 321 323 325 326 331 333 335 344 349 352 354 356 359 357 357 353 350 348 345 342 340
310 305 302 313 316 319 318 309 319 320 320 320 323 317 322 330 334 340 350 353 353 356 356 355 354 353 350 345 342 339 337 335
308 307 310 318 319 321 309 312 321 321 322 322 321 325 330 339 341 349 352 353 356 354 352 352 351 349 344 341 337 336 335 335
310 307 304 320 319 315 322 326 324 324 325 328 329 328 338 345 347 349 351 352 353 350 350 350 350 346 342 337 337 335 334 333
310 310 320 322 322 324 325 326 326 326 326 328 328 329 343 346 348 350 350 350 350 349 346 346 345 342 336 336 336 335 332 331
315 317 319 322 324 327 328 326 327 328 328 329 329 331 344 346 348 349 349 348 348 345 342 341 341 338 334 333 334 331 330 329
315 319 320 322 326 327 329 332 332 332 331 332 333 340 345 346 349 348 347 347 345 343 341 338 337 333 332 332 331 329 328 326
312 322 322 326 326 327 327 327 330 333 332 334 337 343 346 348 348 347 346 344 343 342 338 334 332 330 330 332 332 328 325 324
322 329 332 332 329 339 334 331 333 335 335 336 341 346 347 347 347 338 344 342 341 338 335 330 329 327 329 330 330 329 326 321

GFSFLT2_sfc_thetae_174.txt.gz
Theta_e
318 320 318 314 312 316 309 311 307 311 316 322 323 323 325 327 330 331 333 334 337 340 343 345 345 348 349 357 360 361 360 361
317 319 318 316 319 309 311 303 303 308 312 312 321 320 322 324 329 332 334 334 337 339 343 346 347 349 351 357 358 361 361 362
315 312 311 312 312 313 312 310 305 305 309 323 324 324 324 325 327 333 334 335 337 339 344 346 347 348 349 353 359 361 363 365
311 316 317 315 313 313 308 309 311 310 309 321 326 324 327 328 333 332 336 335 338 339 343 345 346 348 350 352 357 362 366 368
308 312 315 311 313 314 314 314 311 307 310 323 325 326 329 329 329 336 337 336 338 342 343 346 348 350 351 355 358 363 369 369
305 310 312 309 310 313 312 310 311 311 316 320 322 324 327 329 334 336 343 346 344 350 359 353 354 362 361 358 361 366 366 366
311 313 313 310 309 311 312 313 311 314 315 319 327 326 329 331 337 338 342 344 350 354 359 359 361 363 363 362 363 365 365 362
308 311 312 309 310 311 312 314 314 315 316 325 328 328 328 333 336 339 342 345 349 353 356 358 359 358 360 362 363 365 359 356
307 310 309 306 310 311 313 316 315 312 320 324 325 327 329 336 337 339 342 346 350 352 355 357 358 359 358 361 363 358 353 352
307 311 301 310 316 315 314 316 317 319 322 325 330 329 328 335 339 342 344 346 351 354 356 359 359 361 362 361 355 350 348 349
306 305 308 310 313 313 313 315 319 319 323 323 326 325 331 334 340 344 346 349 353 357 359 360 360 362 358 354 350 349 348 346
308 304 300 313 315 319 318 310 322 321 322 321 325 317 324 338 337 343 354 356 356 357 359 361 362 360 355 351 349 346 344 342
309 306 309 317 318 319 308 313 324 322 327 325 324 333 345 341 339 351 356 356 358 358 358 361 358 355 351 348 345 344 341 339
311 308 304 321 319 313 329 332 326 326 327 329 333 333 337 345 354 355 355 356 358 357 357 354 353 351 348 344 344 340 338 337
314 313 327 324 326 329 329 332 328 330 330 331 331 329 330 349 354 354 355 356 356 355 350 349 350 348 344 341 339 338 335 334
318 322 322 322 323 328 330 330 329 329 330 330 331 332 345 350 352 353 354 354 354 350 346 343 344 345 340 339 338 336 333 333
318 321 322 322 326 327 327 330 331 331 331 332 336 340 350 350 353 353 353 353 352 347 344 340 339 336 337 337 335 332 331 329
311 323 325 329 329 327 327 327 328 329 331 335 336 348 351 352 353 353 351 353 348 345 341 336 334 335 335 336 336 333 328 326
321 326 325 330 332 333 330 332 332 333 336 336 339 348 352 353 353 342 352 348 346 342 336 332 332 332 335 336 334 331 328 326

GFSFLT2_sfc_thetae_180.txt.gz
Theta_e
310 311 309 306 301 305 297 296 296 298 305 314 320 319 321 322 323 325 331 333 335 336 337 339 340 342 343 344 342 345 346 347
310 310 310 306 308 300 295 292 291 297 302 303 313 316 319 320 321 324 329 332 335 336 337 339 340 341 344 346 347 348 350 350
305 303 304 302 301 299 298 296 293 292 297 308 316 318 318 321 323 324 326 329 332 335 337 339 340 340 340 345 347 348 350 351
297 305 309 305 304 300 295 294 295 295 298 312 315 316 320 321 324 325 327 328 332 334 335 337 337 338 340 345 347 348 350 350
295 299 302 302 302 300 298 297 295 294 298 310 311 315 321 321 322 325 327 328 330 332 333 335 336 337 339 344 346 348 350 349
292 297 301 300 303 303 299 294 295 298 301 307 311 313 313 321 323 323 326 327 328 330 332 335 336 336 338 343 347 349 350 349
300 302 303 303 304 304 299 298 298 301 301 306 309 313 316 318 322 323 323 325 327 328 332 334 335 336 337 339 346 349 350 350
298 303 303 303 305 306 304 302 302 302 303 308 313 315 318 321 322 322 323 324 327 329 331 333 335 336 337 339 347 350 350 349
295 301 300 297 302 305 305 306 305 300 303 309 315 317 319 319 323 324 327 326 326 328 332 334 336 338 339 346 351 352 349 347
296 295 290 300 306 307 308 308 304 305 306 312 315 320 319 322 323 331 338 338 335 336 338 342 343 344 350 352 350 348 345 343
294 295 296 301 306 304 302 304 306 307 310 315 317 316 317 327 327 335 338 341 343 344 346 348 350 352 349 346 345 344 342 340
293 293 292 300 307 311 307 299 309 307 309 312 312 308 312 324 328 335 339 341 342 345 348 350 349 348 345 343 342 340 339 336
295 295 296 304 310 310 298 300 308 309 308 308 309 311 314 323 330 335 339 342 346 347 347 348 347 346 342 341 339 339 335 333
294 293 294 310 308 304 306 306 310 309 310 312 315 319 319 330 335 341 343 344 346 346 347 346 346 344 341 339 337 334 333 331
299 298 305 307 311 310 308 310 310 310 311 317 324 328 334 336 339 342 344 345 348 347 345 345 344 343 338 333 333 331 329 327
302 303 305 312 312 313 315 317 318 313 317 316 320 335 337 339 341 343 346 347 347 345 343 341 341 339 332 331 331 329 325 324
302 304 307 312 315 315 316 320 320 318 319 320 327 338 340 340 342 345 346 346 346 344 341 338 333 330 330 330 329 325 325 323
298 305 305 307 313 323 319 318 320 320 321 328 332 340 341 342 345 345 344 343 342 341 336 330 329 328 328 329 328 325 322 320
314 312 309 313 319 325 323 322 326 322 322 334 338 343 343 343 344 338 342 341 339 335 330 329 328 326 327 327 327 323 321 314

GFSFLT2_sfc_thetae_183.txt.gz
Theta_e
305 308 308 301 299 306 297 293 292 295 300 310 315 317 318 322 325 327 329 331 333 335 337 337 337 338 339 339 339 339 341 342
306 306 306 304 306 297 293 290 289 294 296 301 309 312 316 319 322 325 327 330 333 335 336 338 339 339 340 340 339 340 341 342
302 300 301 300 298 296 297 294 292 291 296 304 312 314 316 318 322 324 325 330 332 334 336 338 339 340 340 340 341 340 341 343
296 302 306 305 301 299 295 292 292 294 297 308 315 317 318 318 322 323 325 330 332 334 335 335 337 338 339 342 342 344 345 346
290 295 299 300 300 298 297 294 293 294 297 307 311 314 318 319 321 322 324 327 329 332 333 334 336 337 338 340 343 345 346 347
290 293 298 298 301 300 299 293 294 295 299 303 305 310 315 319 321 322 323 325 327 329 331 332 335 336 337 338 341 343 345 345
298 298 300 301 302 300 298 298 298 300 300 303 306 308 311 319 321 321 322 324 325 326 329 330 333 334 334 337 340 344 345 346
293 299 300 297 301 302 302 299 300 300 300 305 307 312 312 316 319 319 322 324 325 327 328 329 332 334 334 335 341 345 345 345
294 296 297 295 300 301 302 301 303 298 303 305 308 312 313 313 318 319 321 324 325 326 327 330 332 334 333 335 343 345 346 347
293 292 287 298 303 306 304 305 304 303 306 307 309 312 314 317 319 321 322 323 324 326 327 330 331 332 334 342 344 346 345 345
291 292 293 298 302 303 301 302 306 305 306 307 310 312 311 319 323 323 324 325 325 327 328 330 333 338 344 346 346 345 344 342
289 290 289 297 306 308 305 300 307 306 306 307 311 304 309 318 323 327 327 328 328 331 340 339 341 346 345 344 344 342 342 340
294 293 294 301 307 307 297 298 306 306 306 306 309 312 317 319 324 330 334 338 340 342 342 343 346 345 341 342 342 341 340 336
293 288 290 305 305 303 305 304 308 308 307 307 311 313 312 321 326 335 338 341 343 343 343 344 344 343 340 340 339 336 334 332
298 300 301 304 307 305 306 307 307 305 308 308 309 311 315 323 330 336 339 341 344 343 342 341 342 342 340 335 334 333 332 328
298 301 306 308 309 311 310 313 313 310 311 316 317 323 329 331 335 338 340 342 344 342 340 339 340 340 336 333 333 332 328 326
298 303 307 309 310 313 317 318 319 314 314 318 322 329 333 334 338 340 342 343 343 341 340 338 335 332 333 332 332 328 326 324
299 305 307 304 314 314 314 317 317 315 317 318 329 332 334 336 339 342 342 342 341 340 338 332 330 330 330 330 329 326 323 322
307 319 313 316 323 323 319 321 320 319 322 326 335 336 337 338 339 334 342 341 340 339 333 331 329 328 329 328 328 325 323 317

GFSFLT2_sfc_thetae_186.txt.gz
Theta_e
304 305 308 300 300 303 294 291 293 295 300 306 315 314 320 321 324 328 331 331 332 334 335 336 337 337 338 337 337 338 339 340
302 305 307 304 305 297 293 291 289 294 296 298 308 310 316 318 322 326 330 331 331 334 335 337 337 338 339 339 338 339 340 341
299 298 297 299 297 295 296 294 292 290 295 303 309 312 314 318 322 325 328 329 331 333 336 337 338 338 338 338 339 339 340 341
294 299 303 303 299 297 293 291 291 293 296 306 311 315 316 318 322 325 327 328 331 333 335 336 336 338 338 339 339 340 341 341
290 292 298 301 299 297 296 294 292 293 297 307 311 315 316 317 319 323 324 326 329 331 332 334 336 337 338 339 340 341 341 342
288 290 296 296 299 300 298 292 293 295 299 304 308 314 315 317 319 321 323 326 328 330 331 333 335 336 338 339 341 342 344 345
295 296 298 299 299 299 300 298 299 301 298 303 306 307 315 318 319 320 321 323 327 328 330 332 333 335 337 337 339 343 345 346
293 297 298 295 300 301 302 299 300 301 300 306 308 310 311 313 317 319 321 323 325 328 330 330 333 335 336 336 339 344 344 345
291 293 293 291 298 298 300 300 303 299 304 306 307 310 312 313 315 319 321 323 325 326 328 330 332 335 335 335 341 343 344 345
285 290 286 297 301 303 301 303 303 304 306 306 309 311 312 315 316 319 322 324 325 327 327 329 332 333 334 336 341 343 344 345
286 287 292 296 300 301 299 301 305 304 306 308 310 313 311 317 318 321 322 324 326 328 329 328 330 333 334 337 341 343 344 345
287 287 287 296 303 306 304 298 306 307 307 307 310 303 308 315 321 320 323 323 323 325 326 327 330 334 336 338 340 342 344 345
289 288 292 300 305 305 296 298 307 307 308 306 307 310 314 314 318 323 324 324 325 329 329 330 336 339 338 341 341 344 345 344
288 287 288 304 304 301 306 306 307 307 307 306 310 311 313 316 320 330 333 335 334 334 336 341 342 340 340 340 342 343 340 337
293 293 301 302 306 307 308 307 307 309 309 310 309 310 312 316 321 330 335 338 339 338 340 342 342 341 340 339 338 337 335 333
297 300 306 305 308 308 308 309 309 311 310 310 310 310 312 316 326 332 337 339 341 340 339 339 340 342 339 337 336 335 331 329
297 304 310 309 311 317 318 314 314 312 313 315 316 319 318 323 328 334 337 341 341 340 340 339 340 337 336 335 335 332 329 328
300 306 306 310 314 320 321 316 318 316 316 317 321 323 330 330 334 337 339 341 340 340 340 336 335 334 334 335 334 330 327 326
300 301 310 316 321 322 322 322 318 317 316 316 325 332 333 333 337 333 341 341 340 339 337 334 333 332 334 334 333 331 328 321